Wind_Speed
34 33 32 31 34 35 35 40 43 39 35 36 36 35 39 42 44 41 35 29 29 31 31 23 15 14 16 18 19 18 19 20 20 21 20 18 15 11 6 5 8 11 13 15 16 14 14 13 13 15 15 15 16 16 18 20 20 20 19 18 18 19 20
33 29 30 32 33 34 35 38 40 38 34 34 36 35 37 42 43 38 31 24 23 25 24 18 14 15 17 19 19 19 20 20 19 21 21 20 19 16 12 11 10 9 9 12 13 13 13 13 14 14 14 15 16 17 18 19 20 21 20 19 19 19 20
28 25 30 35 33 31 33 31 30 35 39 38 39 38 35 36 35 32 28 23 20 21 21 18 17 18 19 20 20 19 18 19 20 22 22 22 22 19 16 16 14 10 8 9 10 12 13 14 14 13 14 15 16 17 18 19 21 22 21 20 20 21 22
28 26 32 39 38 33 32 30 26 30 38 39 37 36 34 33 32 30 29 26 23 22 22 20 18 18 19 18 18 17 17 20 22 23 23 23 21 18 17 16 14 10 8 10 12 14 15 15 14 13 14 14 15 17 19 20 21 22 22 22 23 23 23
33 34 36 36 36 34 35 36 32 29 33 35 32 33 33 33 33 32 31 28 27 26 26 24 21 20 19 18 18 19 21 22 23 24 23 23 22 20 18 16 13 10 8 9 12 14 15 14 13 13 13 14 15 17 19 21 23 22 22 24 26 25 25
35 36 34 26 24 30 36 38 35 32 31 31 31 33 34 35 37 35 32 30 29 29 29 26 25 24 22 21 22 23 23 22 23 24 21 20 22 22 21 19 15 10 8 9 10 12 13 12 12 12 13 15 16 18 20 22 23 23 24 25 27 28 27
34 32 28 20 18 26 35 37 36 34 32 32 33 33 32 34 39 40 37 35 33 32 31 29 27 26 23 23 24 23 22 22 22 21 20 20 22 23 22 21 18 14 11 11 12 12 12 12 13 14 15 17 18 19 21 23 24 25 27 27 28 28 28
34 29 24 20 20 27 35 38 38 36 34 34 36 33 29 30 36 40 39 37 35 32 29 29 30 28 24 23 24 22 23 23 20 19 21 23 23 22 21 22 21 18 14 13 14 15 15 15 16 17 18 19 20 22 23 24 26 28 30 29 29 29 29
35 31 28 26 26 32 39 41 39 36 35 37 39 37 32 30 34 39 39 36 33 29 23 24 29 30 26 24 24 23 24 24 21 21 23 23 23 23 23 24 24 20 17 17 17 17 18 18 19 20 21 22 22 23 25 27 29 30 31 31 30 30 30
40 36 35 33 31 33 37 40 39 37 36 38 41 40 35 31 31 37 39 34 28 25 22 20 22 24 23 23 24 23 24 25 25 26 25 22 22 23 23 25 24 20 19 20 22 22 21 21 22 23 23 24 25 26 27 28 30 32 33 33 32 32 32
43 36 32 29 29 31 34 35 35 36 38 39 40 41 37 31 29 33 36 31 26 25 24 21 20 19 19 21 22 23 25 27 29 30 28 24 24 23 22 23 22 20 21 24 25 24 24 24 25 25 26 28 29 29 30 31 32 34 35 35 35 34 33
40 33 28 25 25 27 29 29 28 29 33 37 40 40 37 32 30 33 36 33 27 25 24 22 21 20 19 21 22 23 26 29 32 33 32 30 28 27 26 25 24 24 28 30 28 26 25 25 26 27 30 32 32 32 33 34 34 34 36 37 37 36 35
37 32 31 29 26 25 24 24 25 24 27 34 40 38 35 33 32 31 33 32 24 21 23 23 21 20 21 22 22 24 28 32 35 35 35 34 33 32 30 28 28 31 33 32 29 28 28 28 29 30 33 34 35 35 34 35 34 34 36 37 38 38 37
34 33 33 33 30 29 27 23 22 23 25 30 35 34 32 32 32 28 28 30 27 25 25 25 23 21 22 24 25 27 32 35 36 35 35 36 36 35 33 31 31 32 32 31 31 31 33 33 34 35 35 34 34 35 35 35 35 35 36 38 39 40 40
34 33 34 35 33 31 31 27 25 26 27 28 29 30 29 29 29 25 26 31 33 31 29 28 26 24 24 26 28 30 34 37 37 35 35 37 38 37 35 34 32 30 29 31 33 34 37 39 39 39 38 36 35 35 35 35 34 35 37 38 39 40 41
38 35 35 37 37 34 31 29 29 30 31 33 32 29 28 28 26 24 27 31 31 30 32 31 30 29 29 29 30 32 35 37 37 37 38 38 39 38 37 37 35 32 33 36 38 39 41 42 42 42 42 41 39 38 37 36 34 34 35 36 38 39 38
41 39 37 36 38 37 31 28 32 35 35 35 36 34 34 35 33 31 32 32 31 32 35 35 35 35 34 34 34 35 36 37 37 39 40 39 39 38 38 39 38 39 42 44 44 45 45 44 44 44 45 44 43 42 42 39 35 33 34 35 37 38 39
42 42 41 37 37 39 34 28 32 39 39 36 36 37 38 39 40 40 38 36 37 40 41 40 37 35 34 36 37 36 37 38 39 39 39 39 40 38 37 39 41 43 45 46 47 48 48 47 47 47 46 45 45 45 44 41 37 36 37 38 39 40 40
43 44 44 41 40 43 39 32 30 36 40 40 39 39 40 39 40 41 38 37 39 40 40 40 36 34 36 39 40 40 39 40 39 39 39 40 40 38 37 40 44 46 46 47 49 52 50 49 49 48 46 45 45 44 42 40 39 39 39 40 40 40 39
45 45 45 45 44 44 41 35 31 32 36 38 38 38 39 39 37 36 33 32 32 31 31 33 32 34 39 41 41 42 40 39 39 39 39 39 39 39 41 45 49 50 50 49 52 53 51 49 48 46 44 43 41 39 38 38 38 38 39 40 42 43 41
47 47 47 47 45 44 42 38 34 33 36 37 36 37 38 37 37 37 36 34 32 29 29 31 32 33 36 37 38 38 37 37 37 37 39 41 43 44 47 49 51 52 52 53 53 51 48 45 44 42 41 41 40 39 39 38 36 36 39 40 41 41 39
48 49 49 49 48 46 46 44 40 37 37 38 38 38 38 37 36 36 37 37 36 34 33 33 35 35 34 34 35 36 36 37 38 39 42 44 46 47 47 50 53 54 54 52 49 45 42 40 40 41 41 41 41 42 41 39 37 38 39 39 39 37 35
49 49 47 49 51 51 51 50 48 44 42 42 39 37 37 37 36 35 35 34 36 38 37 35 34 34 33 34 37 39 40 41 42 43 45 46 47 48 49 51 53 52 49 46 42 39 39 39 39 40 41 41 42 42 40 39 38 37 36 36 36 34 33
47 48 47 47 50 53 55 54 51 49 48 46 42 38 37 38 37 37 35 31 33 38 41 40 38 37 36 39 42 42 43 43 44 45 47 47 47 49 51 52 51 47 43 40 38 38 39 39 39 40 40 40 40 40 41 39 35 34 32 31 30 31 34
48 48 48 49 51 54 57 58 55 52 51 50 47 45 45 42 39 39 39 37 35 36 39 42 43 42 42 43 44 44 44 45 46 47 47 45 45 48 51 52 50 46 41 39 38 39 39 39 39 40 40 40 40 41 42 39 34 33 32 30 29 32 35
53 51 49 51 54 55 58 61 60 56 53 52 51 50 49 46 42 41 42 43 42 41 40 41 43 46 47 47 45 43 44 45 47 47 48 47 48 51 52 51 50 47 44 41 40 39 38 38 38 39 41 42 41 40 40 38 35 34 34 33 32 34 37
53 53 49 50 54 57 60 62 61 58 54 52 51 50 49 48 47 47 47 48 49 49 47 45 44 45 48 50 48 45 44 45 46 47 49 51 53 53 50 48 47 47 46 44 43 41 40 38 38 39 40 42 41 40 38 38 38 36 35 33 33 35 39
52 53 52 52 55 59 62 61 58 57 55 53 52 50 50 51 51 51 51 52 52 52 54 54 52 49 49 51 52 51 50 49 48 48 49 51 51 48 44 43 44 45 46 46 45 43 41 39 38 38 39 40 40 40 39 39 40 39 36 34 34 36 36
50 51 54 57 58 59 59 57 54 54 54 54 53 50 49 49 50 50 50 50 49 48 50 54 56 55 53 52 52 51 48 45 44 44 45 45 43 41 41 43 44 45 45 44 43 41 40 39 38 37 37 38 38 39 40 42 41 39 37 36 35 34 33
48 46 46 50 53 55 54 51 48 47 47 49 50 49 49 50 51 52 50 47 43 41 41 43 48 50 51 50 50 47 44 41 42 43 42 41 40 40 40 41 42 42 42 41 39 37 37 37 37 37 37 37 37 37 37 38 37 35 35 35 34 32 33
52 48 43 41 42 46 47 44 41 41 42 43 45 46 48 49 49 48 47 44 42 41 40 41 44 46 47 49 49 48 44 43 44 44 42 41 40 39 37 37 37 39 40 40 38 37 36 36 36 36 35 35 34 33 31 31 33 36 38 38 37 36 36
51 51 48 43 40 40 40 38 38 38 38 39 40 40 42 43 42 42 45 46 46 45 44 45 46 48 49 49 50 49 46 44 44 42 41 40 40 37 36 35 36 37 38 39 38 37 36 35 35 34 34 33 33 32 32 32 35 41 43 41 41 42 43
46 49 50 47 43 42 40 38 38 37 36 36 37 37 37 38 39 41 44 46 45 43 43 45 47 49 50 49 49 48 45 43 42 41 40 39 37 35 34 34 34 35 36 36 36 35 34 34 33 34 34 35 34 35 35 34 36 41 44 43 42 44 47
38 40 41 40 40 40 38 36 36 36 34 33 34 35 36 38 39 40 41 42 42 42 44 47 49 50 50 48 47 44 41 40 40 39 36 33 31 31 32 33 33 34 34 34 33 33 33 33 33 34 36 36 37 37 37 36 36 39 43 44 45 46 46
34 33 32 31 30 30 29 29 30 31 31 30 30 32 34 36 38 40 41 42 44 45 47 47 45 43 41 39 37 33 31 31 32 32 30 30 30 31 32 32 33 33 33 33 33 33 33 34 35 36 37 37 37 36 36 37 37 36 39 41 43 40 37
34 33 31 29 27 26 26 28 30 31 32 32 33 33 34 35 37 39 40 42 42 42 40 37 34 31 31 31 30 28 28 29 30 30 31 32 33 33 33 33 33 33 34 34 34 34 35 36 37 38 38 38 37 37 38 40 39 37 38 39 40 41 43
32 33 31 27 26 27 29 31 32 33 34 35 35 36 36 36 35 34 34 36 37 36 35 33 32 31 31 31 31 30 31 31 32 33 33 33 33 34 34 34 34 34 35 35 35 36 37 38 39 40 40 40 41 42 43 43 43 42 42 43 45 48 52
Wind_Direction
216 211 206 196 197 209 209 201 201 203 205 207 210 217 221 223 226 228 228 240 250 249 247 250 253 251 251 254 258 268 280 287 290 296 301 299 303 319 317 283 269 260 255 252 247 246 251 256 258 262 269 276 279 280 283 286 288 291 296 297 294 291 291
221 217 208 204 204 210 215 212 207 204 204 207 212 218 222 221 224 229 231 238 245 245 248 258 268 266 260 261 265 271 278 285 290 295 297 297 300 310 317 312 302 280 259 253 251 247 246 251 257 263 271 278 280 280 282 287 289 291 294 294 294 295 295
218 218 207 207 212 215 216 219 217 211 208 212 216 218 220 221 226 232 234 239 246 244 247 256 264 265 263 266 267 267 276 286 288 290 294 298 305 315 319 310 304 296 267 249 253 256 256 261 265 268 273 279 279 277 281 287 288 290 291 290 292 295 295
207 215 211 207 211 214 210 210 214 215 215 220 226 226 224 225 228 233 236 240 239 234 239 249 256 257 256 258 257 260 274 280 281 288 298 304 312 324 327 313 303 298 277 253 251 253 255 261 266 269 273 278 279 278 281 286 288 291 291 289 289 291 291
203 213 218 213 214 214 205 200 201 209 219 225 229 232 234 235 234 234 238 240 236 232 234 241 248 253 254 255 256 263 272 276 283 295 304 312 320 331 332 318 303 293 275 260 257 255 255 260 265 271 277 280 281 283 285 287 290 292 290 287 288 290 291
205 215 224 221 222 220 209 204 205 209 218 226 229 232 236 237 237 237 239 240 237 235 235 238 245 250 251 254 258 264 270 279 292 300 308 318 322 326 327 318 309 297 273 268 273 271 268 267 268 273 280 283 285 288 290 291 291 290 287 285 287 291 293
207 211 221 219 217 222 215 211 215 215 217 226 231 235 240 239 235 233 236 238 238 239 241 242 245 246 245 250 256 265 277 287 295 302 312 318 316 316 318 316 312 306 291 288 292 288 280 273 273 280 288 292 293 294 295 296 294 291 288 287 288 292 294
210 207 213 211 206 215 214 211 216 218 220 225 228 232 239 242 238 234 236 241 242 246 251 248 243 240 245 255 264 274 286 290 295 304 307 308 306 305 307 309 309 308 306 308 305 298 292 287 287 291 296 301 303 302 301 299 296 292 289 289 290 292 292
205 203 204 203 201 207 211 212 218 224 227 227 225 226 232 237 236 234 235 241 245 250 256 251 243 243 249 263 272 279 287 291 296 300 297 299 305 303 301 303 303 303 304 308 309 304 296 292 292 295 299 303 307 308 305 302 298 294 291 291 291 291 291
200 202 203 203 200 203 210 216 222 229 232 229 227 230 235 241 240 234 233 239 246 250 255 253 247 245 251 265 276 281 287 292 295 294 293 302 312 312 310 307 302 298 297 301 305 305 302 299 296 297 299 301 304 306 305 304 300 294 292 292 292 290 288
207 212 213 211 207 206 212 218 224 229 231 231 233 234 238 245 247 238 232 236 244 249 254 258 258 259 264 271 277 283 288 290 290 290 296 308 314 316 318 312 302 300 306 308 308 307 306 306 303 302 302 301 301 301 301 302 300 294 291 291 289 287 285
215 219 220 222 222 218 217 221 225 229 228 226 227 230 234 242 248 243 236 236 243 250 255 262 268 273 278 278 279 284 287 285 284 289 300 307 306 306 312 311 304 304 308 309 305 302 299 297 297 299 302 303 303 301 300 299 298 294 291 289 287 284 281
215 213 215 220 226 230 232 229 227 228 228 224 223 227 234 240 246 249 241 238 249 263 265 268 272 273 277 279 281 282 280 279 284 292 300 302 299 299 304 308 305 301 302 301 298 297 296 294 295 297 300 303 303 301 299 298 296 294 291 288 285 282 280
208 203 210 215 218 228 236 232 223 220 223 224 225 231 238 242 248 251 240 237 251 263 265 270 272 270 273 275 275 277 277 280 287 293 295 295 295 298 302 306 303 296 295 298 299 301 302 301 301 300 300 301 300 298 297 296 295 293 289 286 283 281 281
204 201 207 211 212 220 228 229 225 221 221 225 231 236 239 242 250 251 240 241 252 258 261 264 263 262 266 269 270 274 277 281 285 288 289 291 294 297 299 304 304 296 295 300 302 304 306 304 302 301 300 299 298 296 296 295 294 291 288 286 283 281 282
207 205 207 209 210 214 220 225 224 222 225 231 234 237 236 238 247 250 246 247 252 256 258 259 258 259 263 268 270 272 275 279 283 286 288 291 293 294 296 301 303 301 301 303 302 302 301 300 300 301 300 299 298 297 296 295 293 291 288 286 283 282 281
212 211 210 211 212 212 213 217 217 216 221 227 229 231 232 234 239 243 245 247 248 248 250 252 256 259 262 268 272 274 276 279 282 285 288 290 290 291 294 297 300 300 299 298 298 299 297 297 300 300 299 298 297 296 295 295 295 292 288 286 283 282 280
216 217 214 212 214 216 216 215 215 216 218 219 222 226 228 230 232 231 229 231 233 236 241 246 252 258 262 266 270 273 276 276 277 281 284 285 287 288 290 292 295 297 295 292 295 298 297 297 298 297 296 295 294 294 294 296 296 293 290 289 286 282 280
214 218 217 215 217 219 220 219 218 221 222 220 219 223 228 231 232 230 228 228 229 233 237 240 245 252 257 260 262 266 270 271 272 275 278 281 283 282 282 286 290 291 290 288 293 297 295 294 294 292 291 292 292 294 296 297 296 293 293 292 286 281 282
211 214 216 218 219 220 222 222 220 222 226 225 224 227 231 233 234 237 240 240 239 238 237 237 240 246 250 254 258 262 264 265 268 273 275 276 274 273 277 283 285 286 286 287 291 294 292 290 290 290 291 293 294 295 296 297 298 298 300 297 287 281 282
213 214 215 217 219 221 223 223 223 223 225 226 229 233 237 239 242 245 247 248 249 246 241 239 240 242 245 250 255 257 259 263 267 269 269 268 269 272 277 281 283 284 286 287 290 290 288 288 289 290 291 292 293 293 294 297 300 302 302 298 289 282 276
213 214 216 218 220 222 224 224 224 225 225 226 229 232 236 240 244 248 250 252 255 255 251 247 245 244 245 247 250 252 255 259 260 260 260 263 269 273 276 279 282 284 287 288 288 287 287 288 289 289 289 290 291 293 296 299 302 305 303 296 288 279 270
212 210 212 217 220 222 225 225 225 224 225 226 226 228 235 239 240 245 249 251 253 255 255 250 244 240 240 240 241 243 245 248 249 252 256 261 267 272 274 276 279 284 286 285 284 286 289 291 290 289 289 290 291 293 296 300 305 308 306 297 288 278 271
214 214 213 217 221 223 224 225 225 224 225 226 224 226 234 237 238 243 249 249 250 252 252 251 245 239 236 236 237 238 240 243 247 252 257 261 265 270 272 274 278 282 280 278 280 285 290 293 292 291 291 291 292 294 297 301 304 304 302 298 290 281 278
212 214 215 218 221 223 223 224 226 226 225 227 228 229 232 234 237 245 250 251 252 251 250 251 251 247 243 242 242 242 244 247 250 254 259 263 265 269 272 275 278 280 278 276 279 283 287 290 290 289 290 292 293 294 296 299 300 297 294 293 289 285 284
210 209 209 213 217 220 221 222 225 226 226 229 232 234 234 233 236 245 250 252 254 254 252 252 252 251 250 249 248 249 251 253 256 260 263 265 267 270 274 277 278 279 279 279 280 283 286 286 284 284 286 287 289 291 292 294 296 294 291 290 289 288 286
209 208 206 208 213 218 220 221 223 225 227 231 234 237 239 239 241 246 251 254 256 256 254 254 252 252 252 251 252 255 256 259 263 266 267 267 269 271 275 277 279 281 283 284 285 287 288 287 286 285 284 285 287 288 289 290 291 291 290 289 288 288 285
209 210 210 210 211 215 218 220 223 225 227 231 236 239 244 247 248 249 250 253 255 255 254 254 253 252 252 254 258 261 262 264 267 269 269 269 270 271 273 276 279 282 284 286 288 289 290 289 289 288 287 287 288 288 288 287 287 288 288 287 287 287 277
220 220 219 218 217 219 220 221 224 226 228 232 236 240 244 247 248 248 249 252 254 252 251 252 253 255 256 258 261 264 265 267 268 269 270 270 270 271 275 278 280 281 282 284 285 287 288 289 289 288 288 288 289 289 289 287 284 283 284 286 289 285 270
237 235 229 225 224 225 224 223 224 226 227 231 235 239 241 243 244 246 248 251 254 252 251 252 253 255 257 259 261 262 262 263 265 267 268 269 270 274 278 280 281 282 282 283 283 283 284 285 286 287 288 290 292 293 293 292 287 284 286 290 290 286 276
244 242 239 236 234 229 224 222 224 225 227 230 234 236 238 239 243 247 249 251 253 254 255 255 255 256 256 257 258 258 258 259 261 263 264 267 272 276 279 280 282 283 284 284 284 283 282 283 285 288 290 291 293 294 296 296 291 290 294 294 290 288 287
242 243 243 243 240 233 228 226 227 228 229 232 236 237 237 239 243 248 252 254 253 252 251 252 254 257 258 258 258 258 257 258 260 262 266 270 273 275 278 280 282 281 281 281 282 283 284 286 288 290 291 291 292 294 295 293 290 290 292 289 283 285 289
241 244 246 246 242 237 235 235 235 235 238 241 243 244 245 247 249 250 252 256 257 256 255 255 255 256 258 260 259 257 255 256 260 265 269 273 275 276 278 279 278 277 277 278 280 282 285 287 289 291 292 293 294 297 299 297 293 291 289 283 279 281 284
247 246 244 242 240 238 238 241 243 245 246 246 247 248 251 255 257 256 257 260 262 263 263 262 259 257 258 259 259 258 256 258 263 268 271 275 276 277 276 276 276 277 277 278 280 282 285 287 290 291 293 295 297 299 299 297 295 297 294 283 272 272 276
247 242 237 234 236 237 241 248 252 252 249 249 251 254 256 258 260 260 261 263 264 264 264 263 262 262 263 263 264 267 268 269 270 272 275 277 278 277 276 276 278 279 280 281 282 284 286 288 289 290 291 294 295 294 293 293 293 297 295 279 263 263 275
233 230 229 231 235 240 247 254 256 256 256 257 261 263 264 264 265 264 262 261 262 264 266 268 270 271 272 271 272 274 275 276 275 275 276 278 280 280 280 279 279 279 280 282 283 285 287 288 288 290 291 291 291 289 289 291 292 291 288 278 269 272 282
224 220 221 226 233 238 246 252 256 259 262 263 264 265 265 266 267 265 261 260 261 264 269 274 277 280 280 279 278 277 276 276 276 277 278 279 281 282 282 282 282 282 283 283 284 285 286 287 287 288 288 288 288 288 287 288 289 288 286 284 282 283 285
Height
5870 5873 5876 5878 5880 5883 5886 5886 5885 5887 5890 5892 5894 5894 5894 5895 5896 5897 5899 5899 5898 5898 5900 5902 5903 5903 5904 5904 5904 5904 5904 5904 5904 5904 5905 5906 5906 5906 5906 5906 5907 5907 5907 5906 5906 5906 5906 5906 5907 5907 5906 5906 5905 5904 5903 5902 5901 5901 5900 5900 5899 5899 5898
5868 5871 5875 5876 5877 5879 5881 5882 5884 5888 5889 5889 5890 5890 5891 5892 5892 5894 5897 5897 5896 5896 5897 5898 5900 5900 5901 5901 5902 5902 5902 5902 5902 5902 5903 5903 5903 5903 5903 5903 5904 5904 5904 5903 5903 5903 5904 5904 5904 5904 5904 5903 5903 5902 5901 5900 5899 5898 5898 5898 5897 5896 5896
5866 5870 5872 5873 5874 5876 5877 5880 5884 5885 5885 5885 5885 5886 5888 5889 5890 5892 5893 5894 5893 5893 5894 5895 5897 5898 5899 5899 5900 5900 5900 5900 5900 5900 5900 5900 5899 5899 5899 5899 5900 5900 5900 5900 5900 5901 5901 5901 5902 5902 5902 5901 5901 5900 5899 5898 5898 5897 5896 5896 5895 5894 5893
5864 5866 5866 5866 5869 5871 5874 5877 5880 5881 5882 5883 5884 5885 5886 5887 5887 5888 5889 5889 5890 5890 5891 5893 5894 5895 5896 5897 5897 5897 5898 5898 5899 5898 5898 5897 5897 5896 5896 5896 5896 5897 5897 5897 5898 5898 5898 5898 5899 5900 5900 5899 5899 5898 5897 5896 5895 5895 5894 5893 5893 5892 5891
5859 5859 5859 5862 5866 5869 5870 5871 5873 5876 5878 5880 5882 5883 5883 5884 5884 5885 5885 5885 5886 5887 5888 5890 5891 5892 5893 5894 5894 5895 5895 5895 5896 5895 5895 5894 5893 5893 5893 5894 5893 5894 5894 5894 5895 5895 5895 5896 5897 5897 5897 5897 5897 5896 5895 5894 5893 5893 5892 5890 5890 5889 5888
5854 5855 5857 5862 5866 5867 5868 5868 5870 5872 5874 5877 5879 5879 5879 5880 5881 5882 5882 5882 5882 5884 5885 5887 5888 5889 5890 5890 5891 5891 5892 5892 5892 5892 5892 5892 5890 5890 5891 5891 5891 5892 5892 5893 5893 5893 5893 5893 5894 5894 5895 5895 5894 5894 5893 5892 5891 5890 5889 5888 5887 5885 5884
5851 5854 5858 5862 5864 5865 5866 5867 5868 5869 5871 5873 5874 5875 5876 5877 5877 5878 5878 5878 5879 5880 5882 5884 5885 5886 5886 5887 5887 5888 5888 5889 5889 5889 5889 5889 5889 5888 5889 5888 5888 5889 5890 5890 5890 5890 5890 5891 5891 5891 5891 5891 5891 5891 5891 5890 5888 5887 5885 5885 5883 5882 5880
5849 5853 5856 5859 5861 5862 5863 5863 5864 5866 5868 5870 5872 5874 5874 5874 5874 5875 5876 5875 5875 5877 5880 5881 5882 5882 5883 5884 5884 5885 5885 5885 5886 5887 5886 5887 5887 5888 5887 5886 5885 5886 5886 5886 5887 5887 5887 5888 5888 5888 5888 5888 5888 5888 5888 5887 5885 5883 5881 5881 5879 5878 5877
5844 5846 5849 5852 5855 5857 5859 5860 5861 5863 5866 5867 5869 5870 5870 5870 5870 5872 5873 5873 5874 5875 5877 5878 5879 5880 5881 5881 5881 5882 5882 5882 5883 5884 5885 5885 5886 5886 5885 5884 5883 5883 5883 5883 5883 5884 5884 5884 5884 5885 5885 5885 5885 5885 5885 5884 5882 5880 5878 5877 5876 5874 5873
5836 5838 5840 5844 5849 5853 5856 5857 5859 5861 5863 5864 5865 5866 5867 5867 5868 5869 5869 5870 5872 5872 5873 5874 5876 5877 5879 5879 5879 5879 5879 5879 5880 5881 5882 5884 5884 5883 5882 5881 5880 5880 5881 5881 5881 5881 5881 5881 5881 5881 5882 5882 5882 5882 5882 5881 5879 5876 5874 5873 5871 5870 5869
5834 5837 5840 5844 5848 5851 5853 5855 5857 5859 5860 5861 5862 5862 5863 5865 5866 5866 5867 5868 5869 5869 5870 5871 5873 5875 5877 5877 5877 5877 5877 5877 5877 5878 5879 5881 5881 5880 5879 5878 5878 5878 5878 5878 5878 5878 5878 5878 5878 5878 5879 5879 5879 5879 5879 5877 5875 5873 5871 5869 5867 5865 5864
5835 5838 5841 5844 5847 5848 5850 5853 5854 5856 5857 5858 5858 5858 5860 5862 5863 5863 5864 5865 5866 5867 5868 5869 5871 5873 5875 5875 5875 5875 5875 5874 5874 5875 5876 5877 5878 5877 5877 5877 5877 5876 5875 5875 5875 5876 5876 5876 5876 5875 5875 5875 5875 5875 5874 5873 5871 5869 5867 5865 5863 5860 5859
5834 5836 5839 5842 5844 5846 5848 5850 5852 5853 5853 5854 5854 5855 5858 5859 5859 5860 5862 5863 5864 5865 5866 5868 5869 5871 5872 5872 5872 5873 5872 5871 5871 5872 5873 5873 5874 5875 5876 5877 5876 5874 5873 5873 5873 5873 5873 5873 5872 5872 5872 5871 5870 5870 5869 5868 5866 5865 5863 5860 5858 5856 5854
5832 5834 5836 5840 5842 5843 5844 5846 5848 5850 5851 5851 5852 5854 5855 5855 5856 5858 5860 5861 5862 5863 5864 5865 5867 5868 5869 5869 5869 5870 5870 5869 5869 5870 5870 5869 5870 5872 5873 5874 5874 5872 5871 5870 5869 5869 5868 5868 5867 5867 5867 5867 5866 5865 5864 5863 5862 5860 5858 5856 5853 5851 5850
5829 5832 5835 5837 5839 5840 5842 5843 5845 5847 5849 5850 5851 5851 5852 5852 5853 5855 5857 5857 5858 5860 5862 5863 5864 5865 5865 5865 5866 5867 5867 5866 5866 5867 5867 5868 5868 5869 5870 5870 5870 5869 5868 5867 5866 5865 5864 5863 5862 5862 5862 5862 5861 5860 5859 5858 5857 5855 5853 5851 5849 5847 5846
5825 5829 5831 5833 5835 5837 5838 5839 5841 5844 5846 5846 5847 5847 5848 5848 5849 5851 5852 5852 5854 5857 5859 5860 5861 5861 5862 5862 5863 5864 5864 5863 5864 5864 5865 5866 5866 5866 5865 5865 5865 5864 5864 5864 5863 5863 5862 5860 5859 5857 5856 5856 5855 5854 5853 5852 5851 5850 5848 5847 5844 5843 5842
5821 5824 5827 5830 5832 5834 5834 5834 5837 5839 5840 5841 5841 5842 5842 5843 5845 5847 5848 5850 5853 5855 5856 5856 5857 5858 5859 5859 5860 5861 5861 5861 5861 5861 5861 5862 5862 5862 5861 5860 5860 5860 5860 5860 5860 5859 5858 5857 5856 5854 5852 5851 5849 5848 5846 5846 5846 5845 5844 5842 5841 5839 5838
5817 5820 5824 5827 5830 5830 5829 5830 5832 5834 5834 5834 5835 5836 5837 5838 5839 5840 5843 5846 5849 5850 5851 5853 5854 5855 5856 5857 5857 5858 5858 5858 5858 5858 5858 5858 5857 5857 5857 5857 5857 5857 5857 5856 5856 5855 5854 5853 5852 5850 5848 5846 5844 5842 5841 5841 5841 5839 5838 5838 5837 5835 5833
5814 5817 5821 5824 5824 5824 5824 5825 5828 5829 5829 5829 5830 5830 5831 5832 5834 5836 5838 5841 5844 5846 5848 5850 5852 5853 5853 5853 5853 5854 5855 5855 5855 5855 5855 5854 5853 5852 5852 5853 5855 5855 5855 5854 5852 5851 5850 5849 5847 5845 5843 5840 5838 5837 5836 5836 5835 5834 5833 5833 5831 5829 5828
5810 5813 5816 5818 5819 5821 5821 5822 5823 5824 5825 5826 5826 5825 5826 5828 5830 5833 5835 5838 5841 5843 5845 5847 5848 5848 5849 5849 5850 5850 5851 5851 5851 5852 5851 5850 5849 5849 5849 5850 5851 5851 5852 5851 5849 5846 5845 5844 5842 5839 5837 5835 5833 5832 5830 5830 5830 5829 5829 5828 5824 5822 5823
5805 5809 5812 5813 5816 5819 5819 5819 5819 5820 5821 5823 5824 5824 5824 5825 5827 5829 5831 5833 5836 5839 5842 5843 5844 5844 5845 5846 5846 5846 5847 5847 5848 5848 5847 5846 5846 5846 5846 5846 5846 5846 5846 5846 5844 5842 5840 5839 5837 5834 5832 5829 5827 5826 5824 5824 5825 5824 5822 5820 5816 5814 5815
5799 5804 5807 5810 5813 5815 5815 5816 5817 5818 5819 5820 5822 5823 5822 5822 5824 5826 5827 5830 5832 5835 5837 5839 5840 5841 5841 5842 5842 5842 5843 5843 5844 5844 5843 5842 5843 5844 5843 5842 5840 5840 5840 5840 5839 5838 5836 5835 5832 5829 5827 5824 5822 5820 5819 5819 5819 5817 5815 5812 5809 5808 5809
5794 5798 5802 5805 5808 5810 5811 5812 5813 5815 5816 5816 5820 5821 5819 5818 5822 5823 5825 5828 5829 5831 5833 5834 5835 5837 5837 5838 5838 5838 5839 5839 5840 5839 5839 5839 5840 5839 5838 5837 5836 5836 5836 5835 5834 5833 5831 5829 5827 5824 5821 5819 5816 5815 5814 5814 5813 5812 5810 5808 5806 5806 5806
5789 5794 5797 5800 5803 5805 5806 5807 5808 5811 5812 5813 5817 5818 5814 5815 5819 5820 5821 5824 5826 5828 5830 5830 5831 5832 5833 5832 5832 5832 5833 5834 5834 5834 5834 5835 5836 5834 5832 5831 5831 5832 5832 5831 5830 5828 5826 5823 5821 5819 5816 5814 5812 5811 5809 5809 5809 5808 5806 5805 5804 5804 5804
5784 5787 5790 5793 5796 5798 5801 5803 5804 5806 5809 5811 5812 5811 5810 5813 5816 5816 5817 5820 5821 5823 5826 5826 5827 5828 5828 5827 5828 5828 5829 5829 5829 5830 5830 5831 5830 5827 5826 5826 5825 5825 5826 5825 5825 5823 5821 5819 5816 5814 5812 5810 5808 5807 5806 5805 5805 5804 5802 5801 5800 5800 5800
5779 5781 5783 5786 5789 5791 5795 5798 5800 5803 5806 5805 5804 5804 5806 5810 5812 5812 5813 5815 5816 5818 5820 5821 5821 5822 5822 5823 5824 5825 5825 5825 5825 5826 5826 5826 5824 5822 5821 5821 5820 5819 5819 5818 5818 5817 5816 5814 5812 5810 5808 5806 5805 5804 5803 5802 5800 5799 5798 5797 5796 5795 5794
5775 5777 5778 5780 5782 5785 5790 5793 5795 5798 5800 5799 5798 5800 5802 5804 5807 5809 5810 5810 5811 5813 5814 5815 5816 5816 5816 5817 5818 5820 5821 5821 5821 5821 5820 5819 5818 5816 5816 5815 5813 5811 5810 5810 5810 5809 5809 5807 5806 5805 5803 5802 5801 5801 5800 5798 5796 5794 5793 5793 5792 5790 5788
5770 5772 5773 5774 5775 5779 5783 5787 5790 5793 5795 5794 5795 5796 5797 5799 5802 5805 5805 5806 5807 5807 5807 5808 5809 5810 5810 5811 5812 5813 5815 5815 5816 5815 5814 5812 5811 5811 5811 5809 5807 5805 5804 5802 5802 5801 5801 5800 5799 5798 5797 5796 5795 5795 5794 5792 5791 5789 5788 5788 5787 5786 5785
5767 5768 5769 5770 5773 5775 5779 5782 5785 5788 5790 5790 5791 5793 5794 5796 5798 5799 5800 5801 5801 5801 5801 5802 5803 5804 5805 5805 5805 5805 5806 5807 5808 5808 5807 5806 5805 5805 5805 5803 5801 5800 5798 5797 5797 5796 5795 5794 5792 5791 5791 5790 5790 5789 5787 5785 5784 5784 5784 5783 5781 5780 5779
5761 5763 5766 5769 5771 5773 5775 5778 5782 5784 5785 5786 5788 5790 5792 5793 5792 5793 5795 5795 5795 5795 5795 5796 5797 5798 5799 5799 5799 5799 5799 5799 5800 5800 5800 5800 5800 5800 5799 5797 5795 5793 5792 5791 5791 5791 5790 5789 5787 5786 5786 5785 5785 5784 5782 5780 5778 5778 5778 5777 5775 5773 5773
5756 5758 5761 5766 5769 5771 5773 5776 5778 5780 5781 5782 5783 5785 5787 5787 5787 5788 5789 5788 5788 5789 5789 5790 5792 5793 5794 5794 5794 5794 5794 5793 5793 5793 5794 5794 5794 5794 5793 5791 5789 5787 5786 5785 5784 5784 5784 5784 5782 5781 5781 5780 5780 5779 5777 5776 5774 5772 5771 5770 5767 5765 5765
5753 5753 5756 5762 5766 5769 5771 5773 5775 5776 5778 5778 5780 5781 5782 5782 5783 5783 5783 5782 5783 5784 5784 5785 5786 5787 5788 5788 5788 5788 5789 5788 5788 5788 5788 5789 5789 5788 5787 5786 5784 5783 5781 5779 5778 5778 5778 5778 5777 5776 5775 5774 5774 5773 5772 5771 5770 5767 5765 5764 5761 5758 5758
5751 5751 5754 5759 5763 5765 5767 5769 5771 5773 5775 5776 5777 5778 5779 5778 5778 5779 5779 5778 5778 5779 5780 5780 5780 5780 5781 5782 5782 5782 5782 5782 5782 5782 5783 5783 5783 5782 5781 5780 5779 5778 5776 5775 5774 5773 5772 5772 5771 5770 5769 5768 5769 5768 5766 5765 5763 5761 5758 5757 5754 5751 5748
5749 5750 5752 5755 5757 5760 5763 5765 5766 5768 5770 5771 5772 5773 5774 5774 5774 5774 5775 5774 5774 5774 5774 5773 5773 5773 5775 5776 5776 5776 5776 5776 5776 5777 5777 5778 5777 5776 5775 5774 5774 5773 5771 5770 5769 5768 5767 5766 5766 5765 5764 5764 5764 5763 5761 5759 5757 5754 5751 5748 5746 5744 5741
5746 5746 5748 5750 5752 5755 5759 5761 5762 5763 5764 5766 5766 5767 5768 5768 5768 5768 5769 5769 5768 5768 5768 5767 5768 5770 5771 5771 5771 5771 5771 5771 5771 5772 5772 5772 5771 5770 5769 5768 5767 5766 5765 5765 5764 5762 5761 5761 5761 5761 5760 5759 5758 5758 5755 5752 5751 5750 5746 5743 5742 5742 5741
5739 5740 5742 5744 5748 5752 5755 5757 5757 5758 5759 5760 5761 5761 5762 5762 5762 5763 5763 5763 5763 5763 5763 5763 5765 5766 5766 5765 5765 5766 5766 5766 5766 5766 5766 5766 5765 5764 5763 5762 5762 5761 5759 5759 5759 5757 5756 5756 5756 5755 5755 5754 5752 5752 5750 5747 5746 5746 5744 5742 5741 5741 5739
5735 5736 5737 5740 5744 5748 5751 5752 5753 5753 5754 5754 5755 5755 5756 5756 5757 5758 5758 5758 5758 5758 5758 5758 5759 5759 5760 5760 5760 5760 5760 5760 5760 5760 5760 5760 5759 5759 5758 5757 5756 5755 5754 5754 5754 5753 5752 5751 5750 5749 5749 5748 5746 5746 5744 5742 5740 5741 5740 5740 5739 5737 5734